Home   Weather   Maceió   Past weeks

Flag for Brazil Past Weather in Maceió, Alagoas, Brazil — Yesterday and Last 2 Weeks

Now
70 °F

Passing clouds.


Feels Like: 70 °F
Forecast: 74 / 85 °F
Wind: 2 mph from Northeast

Location: Maceio Aeroporto

Current Time: Oct 1, 2016 at 5:48:40 AM

Latest Report: Oct 1, 2016 at 5:00 AM


Visibility: N/A

Pressure: 29.98 "Hg

Humidity: 100%

Dew Point: 70 °F

Location of MaceióLocation

Past Weather in Maceió — Graph

°F

Maceió Temperature Yesterday

Maximum temperature yesterday: 86 °F (at 12:00 PM)
Minimum temperature yesterday: 72 °F (at 3:00 AM)
Average temperature yesterday: 78 °F

High & Low Weather Summary for the Past Weeks

 TemperatureHumidityPressure
High86 °F (Sep 20, 11:00 AM)100% (Sep 16, 5:00 AM)30.09 "Hg (Sep 16, 5:00 AM)
Low64 °F (Sep 19, 2:00 AM)45% (Sep 19, 1:00 PM)29.89 "Hg (Sep 21, 3:00 PM)
Average76 °F81%30.00 "Hg
* Reported Sep 16 5:00 AM — Oct 1 5:00 AM, Maceió, Weather by CustomWeather, © 2016

Note: Actual official high and low records may vary slightly from our data, if they occured in-between our weather recording intervals... More about our weather records

Advertising

Maceió Weather History for the Previous 24 Hours

Scroll right to see more
 ConditionsComfort  
Time TempWeatherWind HumidityBarometerVisibility
5:00 AM
Sat, Oct 1
70 °FPassing clouds.2 mph100%29.98 "HgN/A
4:00 AM72 °FPassing clouds.2 mph94%29.95 "HgN/A
3:00 AM72 °FPassing clouds.3 mph100%29.95 "HgN/A
2:00 AM72 °FPassing clouds.3 mph100%29.95 "HgN/A
1:00 AM73 °FPassing clouds.5 mph94%29.95 "HgN/A
12:00 AM73 °FPassing clouds.3 mph94%29.98 "HgN/A
11:00 PM
Fri, Sep 30
73 °FPassing clouds.7 mph100%29.98 "HgN/A
10:00 PM75 °FPassing clouds.3 mph94%30.01 "Hg6 mi
9:00 PM75 °FPassing clouds.7 mph94%29.98 "HgN/A
8:00 PM75 °FPassing clouds.8 mph94%29.95 "HgN/A
7:00 PM77 °FPassing clouds.7 mph89%29.92 "HgN/A
6:00 PM77 °FPassing clouds.9 mph83%29.92 "HgN/A
5:00 PM81 °FPassing clouds.10 mph74%29.89 "HgN/A
4:00 PM82 °FPassing clouds.13 mph70%29.89 "HgN/A
3:00 PM84 °FPassing clouds.13 mph66%29.89 "HgN/A
2:00 PM84 °FScattered clouds.8 mph70%29.89 "HgN/A
1:00 PM84 °FScattered clouds.17 mph66%29.92 "HgN/A
12:00 PM86 °FScattered clouds.6 mph59%29.92 "HgN/A
11:00 AM82 °FScattered clouds.12 mph70%29.98 "HgN/A
10:00 AM81 °FBroken clouds.6 mph74%29.98 "HgN/A
9:00 AM75 °FBroken clouds.9 mph94%30.01 "Hg4 mi
8:00 AM79 °FPartly sunny.5 mph79%29.98 "HgN/A
7:00 AM75 °FScattered clouds.3 mph89%29.95 "HgN/A
6:00 AM72 °FScattered clouds.2 mph94%29.95 "HgN/A
5:00 AM72 °FPassing clouds.2 mph94%29.92 "HgN/A
Weather by CustomWeather, © 2016

See weather overviewHow to use our weather pages